TheGetRank SiteMap Page 5238
Home 5188 5189 5190 5191 5192 5193 5194 5195 5196 5197 5198 5199 5200 5201 5202 5203 5204 5205 5206 5207 5208 5209 5210 5211 5212 5213 5214 5215 5216 5217 5218 5219 5220 5221 5222 5223 5224 5225 5226 5227 5228 5229 5230 5231 5232 5233 5234 5235 5236 5237 5238 5239 5240 5241 5242 5243 5244 5245 5246 5247 5248 5249 5250 5251 5252 5253 5254 5255 5256 5257 5258 5259 5260 5261 5262 5263 5264 5265 5266 5267 5268 5269 5270 5271 5272 5273 5274 5275 5276 5277 5278 5279 5280 5281 5282 5283 5284 5285 5286 5287 5288
S.NO. Website Pagerank Alexa Rank Last Updated
5237000 kodenkanjax.com 0 10967298 2011-12-19 02:01:42
5237001 kocsma.etel-ital.nyugat-dunantul.istenhozta.hu 0 1030166 2011-12-19 02:01:47
5237002 sansebastianturismo.com 0 664629 2011-12-19 02:01:48
5237003 kobal.ch 0 No Rank 2011-12-19 02:01:48
5237004 invite.supersmileys.net 0 No Rank 2011-12-19 02:01:48
5237005 unusual-automobiles.com 0 No Rank 2011-12-19 02:01:50
5237006 ns1067.abcname.net 0 400507 2011-12-19 02:01:50
5237007 gruppenraum-muenchen.de 0 No Rank 2011-12-19 02:01:52
5237008 loungecultureonline.com 0 No Rank 2011-12-19 02:01:54
5237009 knowitalltraffic.com 0 4200948 2011-12-19 02:01:55
5237010 treehouselearning.co.nz 0 No Rank 2011-12-19 02:01:56
5237011 bulldogevansrecords.com 0 No Rank 2011-12-19 02:01:59
5237012 knmab.com 0 No Rank 2011-12-19 02:01:59
5237013 knitochet.com 0 No Rank 2011-12-19 02:02:01
5237014 1800-australia-cars.com 0 9730854 2011-12-19 02:02:02
5237015 kminvest.lt 0 13765201 2011-12-19 02:02:06
5237016 affirmaticscoaching.com 0 No Rank 2011-12-19 02:02:07
5237017 rightherewritenow.co.uk 0 No Rank 2011-12-19 02:02:10
5237018 kmgf.org 0 No Rank 2011-12-19 02:02:15
5237019 host.chinadomain.com.cn 0 220692 2011-12-19 02:02:15
5237020 altenheim-allersberg.de 0 No Rank 2011-12-19 02:02:15
5237021 kmbfoundation.org 0 22102758 2011-12-19 02:02:15
5237022 pulltheplugongrandma.com 0 No Rank 2011-12-19 02:02:19
5237023 aus.enchanting-india.com 0 1260673 2011-12-19 02:02:20
5237024 pediatricsofnewberry.com 0 18988720 2011-12-19 02:02:24
5237025 klimmbimm.com 0 No Rank 2011-12-19 02:02:25
5237026 ateliereledeparenting.ro 0 18502336 2011-12-19 02:02:25
5237027 klikcreative.com 0 No Rank 2011-12-19 02:02:26
5237028 kleinagency.com 0 No Rank 2011-12-19 02:02:30
5237029 legacyconvertingcorp.com 0 No Rank 2011-12-19 02:02:31
5237030 kkl-luzern.ch 0 1217108 2011-12-19 02:02:35
5237031 wiki.freifunk-potsdam.de 0 4070159 2011-12-19 02:02:35
5237032 fr.123booking-online.com 0 3612410 2011-12-19 02:02:36
5237033 klaudis.dk 0 10674889 2011-12-19 02:02:36
5237034 littlechutewrestling.com 0 No Rank 2011-12-19 02:02:37
5237035 kkf.lv 0 4363172 2011-12-19 02:02:40
5237036 prestige-dental-care.com 0 24080716 2011-12-19 02:02:42
5237037 kittykeswick.com 0 No Rank 2011-12-19 02:02:46
5237038 kituoutcustoms.eu 0 20997732 2011-12-19 02:02:48
5237039 kitchenpulloutshelves.com 0 15771308 2011-12-19 02:02:49
5237040 www4.gym.o91.net 0 19203949 2011-12-19 02:02:50
5237041 kitchenermatch.com 0 No Rank 2011-12-19 02:02:52
5237042 videogaleri.izmir.bel.tr 0 138126 2011-12-19 02:02:53
5237043 kitchencoachnyc.com 0 No Rank 2011-12-19 02:02:53
5237044 kirtanlasvegas.com 0 19443954 2011-12-19 02:02:58
5237045 begrafenissengoossens.be 0 No Rank 2011-12-19 02:03:04
5237046 kirkasvalolamput.com 0 2027405 2011-12-19 02:03:04
5237047 alquimiaproducciones.com 0 No Rank 2011-12-19 02:03:04
5237048 przodownik.przejebane.pl 0 No Rank 2011-12-19 02:03:05
5237049 missouririverfutures.com 0 No Rank 2011-12-19 02:03:05
5237050 kirneylending.com 0 No Rank 2011-12-19 02:03:06
5237051 verkeersschooldelange.nl 0 17765766 2011-12-19 02:03:07
5237052 mydirectory.geomancy.net 0 133571 2011-12-19 02:03:12
5237053 terrifictails.bwfarm.net 0 22022101 2011-12-19 02:03:13
5237054 kirchnercustombuilders.com 0 No Rank 2011-12-19 02:03:18
5237055 mobile.go4wallpapers.com 0 144157 2011-12-19 02:03:19
5237056 kirazmarket.com 0 No Rank 2011-12-19 02:03:21
5237057 kiraholistic.com 0 22047845 2011-12-19 02:03:24
5237058 kingstonrealestateagent.com 0 No Rank 2011-12-19 02:03:36
5237059 kingsgardenva.com 0 18850021 2011-12-19 02:03:38
5237060 email.chinadomain.com.cn 0 220692 2011-12-19 02:03:40
5237061 actors.go4wallpapers.com 0 144157 2011-12-19 02:03:40
5237062 whalecockskateboards.com 0 No Rank 2011-12-19 02:03:42
5237063 kinetic-lights.com 0 4554009 2011-12-19 02:03:46
5237064 kindleexpert.com 0 1559867 2011-12-19 02:03:47
5237065 johnstowngalleria-pa.com 0 6299261 2011-12-19 02:03:47
5237066 denvertobreckenridge.com 0 3699791 2011-12-19 02:03:50
5237067 midtowntapandtearoom.com 0 No Rank 2011-12-19 02:03:51
5237068 kimperson.com 0 No Rank 2011-12-19 02:03:55
5237069 kinatrenden.se 0 No Rank 2011-12-19 02:03:57
5237070 berudom.com 0 26019981 2011-12-19 02:03:58
5237071 kimlenox.com 0 No Rank 2011-12-19 02:04:00
5237072 killref.com 0 No Rank 2011-12-19 02:04:08
5237073 kihingovillage.com 0 9351287 2011-12-19 02:04:08
5237074 abelectricalservices.net 0 No Rank 2011-12-19 02:04:09
5237075 socialsystem.archipel.cc 0 3878146 2011-12-19 02:04:13
5237076 bloggersmartfren.blogspot.com 0 No Rank 2011-12-19 02:04:17
5237077 kidrockfans.de 0 No Rank 2011-12-19 02:04:17
5237078 sucasavacationrental.com 0 No Rank 2011-12-19 02:04:17
5237079 findautosalvageyards.com 0 No Rank 2011-12-19 02:04:17
5237080 kichijitsu.com 0 No Rank 2011-12-19 02:04:22
5237081 kiaprotect.ca 0 No Rank 2011-12-19 02:04:22
5237082 ns1445.abcname.net 0 400507 2011-12-19 02:04:23
5237083 monkeymanproductions.com 0 No Rank 2011-12-19 02:04:24
5237084 adjustabledumbbellsprice.blogspot.com 0 No Rank 2011-12-19 02:04:25
5237085 femaleclothesjournal.com 0 23067612 2011-12-19 02:04:26
5237086 kglilly.com 0 21473219 2011-12-19 02:04:30
5237087 mindygkennedyalvarez.com 0 No Rank 2011-12-19 02:04:31
5237088 123europe-romehotels.com 0 No Rank 2011-12-19 02:04:32
5237089 nexteraenergyresource.us 0 No Rank 2011-12-19 02:04:32
5237090 keywestirish.com 0 8572789 2011-12-19 02:04:35
5237091 keywestacupuncture.com 0 No Rank 2011-12-19 02:04:36
5237092 keystrokesrecorder.org 0 No Rank 2011-12-19 02:04:39
5237093 endlessvacationweeks.com 0 No Rank 2011-12-19 02:04:40
5237094 keystonefloorproducts.com 0 23857814 2011-12-19 02:04:41
5237095 st-lorenz-schoeningen.de 0 No Rank 2011-12-19 02:04:44
5237096 bountylandproperties.com 0 No Rank 2011-12-19 02:04:44
5237097 keys2stlouis.com 0 No Rank 2011-12-19 02:04:45
5237098 gordonkohlaccordions.com 0 No Rank 2011-12-19 02:04:48
5237099 keyesart.com 0 No Rank 2011-12-19 02:04:48
5237100 keybusiness.sk 0 No Rank 2011-12-19 02:04:52
5237101 keyboardconnection.com 0 No Rank 2011-12-19 02:04:53
5237102 sunflowerengineering.com 0 No Rank 2011-12-19 02:04:54
5237103 key-flash.com 0 14615803 2011-12-19 02:04:55
5237104 holisticalcoholrehab.com 0 No Rank 2011-12-19 02:04:56
5237105 walkworld.ru 0 No Rank 2011-12-19 02:05:03
5237106 greenvehicledisposal.com 0 3250264 2011-12-19 02:05:04
5237107 simpklicef.bravehost.com 0 12450 2011-12-19 02:05:06
5237108 kerrplus.com 0 No Rank 2011-12-19 02:05:06
5237109 ketel-krant.nl 0 No Rank 2011-12-19 02:05:09
5237110 americanlasercollege.com 0 No Rank 2011-12-19 02:05:11
5237111 kerlikowskefarms.com 0 No Rank 2011-12-19 02:05:12
5237112 telugu.go4wallpapers.com 0 144157 2011-12-19 02:05:13
5237113 kerlathis.com 0 No Rank 2011-12-19 02:05:13
5237114 globalmobilityreport.com 0 8768484 2011-12-19 02:05:15
5237115 cars.connectcarindia.com 0 3687584 2011-12-19 02:05:17
5237116 blackroseproductions.com 0 No Rank 2011-12-19 02:05:18
5237117 keralas.com 0 6403930 2011-12-19 02:05:20
5237118 keralavillages.com 0 No Rank 2011-12-19 02:05:22
5237119 kerabath.com 0 No Rank 2011-12-19 02:05:23
5237120 theeuusmergerproject.com 0 17144584 2011-12-19 02:05:23
5237121 academiadecozinha.com.br 0 No Rank 2011-12-19 02:05:27
5237122 kepesujsag.com 0 No Rank 2011-12-19 02:05:29
5237123 truck-infosource.com 0 No Rank 2011-12-19 02:05:30
5237124 flightonfiremountain.com 0 No Rank 2011-12-19 02:05:32
5237125 liverighteousapparel.com 0 No Rank 2011-12-19 02:05:32
5237126 kennethellisrealtor.com 0 16403941 2011-12-19 02:05:33
5237127 waitingmusicministry.com 0 No Rank 2011-12-19 02:05:34
5237128 spybubblereview.co 0 No Rank 2011-12-19 02:05:38
5237129 kendor.dk 0 No Rank 2011-12-19 02:05:39
5237130 kencausey.com 0 19882058 2011-12-19 02:05:41
5237131 kenbrownusa.com 0 No Rank 2011-12-19 02:05:44
5237132 tuozzoloconstruction.com 0 6742913 2011-12-19 02:05:45
5237133 autolackiererei-claes.de 0 No Rank 2011-12-19 02:05:47
5237134 kemovod.si 0 No Rank 2011-12-19 02:05:48
5237135 kemerholiday.com 0 16151627 2011-12-19 02:05:51
5237136 kemcyintl.com 0 No Rank 2011-12-19 02:05:54
5237137 crosscreekplantation.com 0 No Rank 2011-12-19 02:05:57
5237138 catchthewavepartners.com 0 No Rank 2011-12-19 02:05:57
5237139 kellyridge.net 0 No Rank 2011-12-19 02:05:59
5237140 elcipresenelpatio.com.ar 0 7704789 2011-12-19 02:06:01
5237141 qualitypressreleases.com 0 6643591 2011-12-19 02:06:03
5237142 kellyperdew.com 0 1989387 2011-12-19 02:06:04
5237143 blog.freifunk-potsdam.de 0 4070159 2011-12-19 02:06:05
5237144 keneya.net 0 1615949 2011-12-19 02:06:07
5237145 kellonet.hu 0 6643565 2011-12-19 02:06:13
5237146 keithroosttaichi.org 0 932490 2011-12-19 02:06:21
5237147 myautomotivedirectory.com 0 7177397 2011-12-19 02:06:24
5237148 keep-intouch.ru 0 1622181 2011-12-19 02:06:27
5237149 keenestatedining.com 0 12300667 2011-12-19 02:06:27
5237150 tajhazszovetseg.museum.hu 0 958563 2011-12-19 02:06:28
5237151 kd-creative.net 0 No Rank 2011-12-19 02:06:33
5237152 kcswcs.org 0 No Rank 2011-12-19 02:06:34
5237153 kcpowerclean.com 0 3388437 2011-12-19 02:06:37
5237154 kbconsultancy.com 0 No Rank 2011-12-19 02:06:47
5237155 kawasakidealermeeting.com 0 No Rank 2011-12-19 02:06:47
5237156 kazoom-media.com 0 No Rank 2011-12-19 02:06:51
5237157 westcoastsuperstorage.com 0 25647112 2011-12-19 02:06:54
5237158 kayowensphotography.com 0 No Rank 2011-12-19 02:06:57
5237159 kbeh-ac.ir 0 26936185 2011-12-19 02:06:58
5237160 kaygeesign.com 0 No Rank 2011-12-19 02:07:06
5237161 domain.chinadomain.net.cn 0 No Rank 2011-12-19 02:07:09
5237162 kayapasorobles.com 0 20817616 2011-12-19 02:07:09
5237163 hansardcommunications.com 0 No Rank 2011-12-19 02:07:14
5237164 kawralfouta.com 0 No Rank 2011-12-19 02:07:14
5237165 brake-disc-belaya.avtosklad.net 0 1790672 2011-12-19 02:07:17
5237166 lotsendienst-migranten.de 0 No Rank 2011-12-19 02:07:23
5237167 contemplation.archipel.cc 0 3878146 2011-12-19 02:07:24
5237168 katycubscouts.com 0 No Rank 2011-12-19 02:07:25
5237169 katieburkedesign.com 0 No Rank 2011-12-19 02:07:25
5237170 katiearmiger.com 0 8863042 2011-12-19 02:07:27
5237171 vicodinaddictionrehab.com 0 15529455 2011-12-19 02:07:28
5237172 katieandsebastian.com 0 No Rank 2011-12-19 02:07:30
5237173 kathrynasanchez.com 0 No Rank 2011-12-19 02:07:33
5237174 kathleenscakes.net 0 No Rank 2011-12-19 02:07:35
5237175 katariyasteel.com 0 No Rank 2011-12-19 02:07:39
5237176 2011misssupernational.com 0 11239334 2011-12-19 02:07:40
5237177 magnoliaaircompressor.com 0 No Rank 2011-12-19 02:07:41
5237178 kaszpi.hu 0 26713438 2011-12-19 02:07:42
5237179 karte.freifunk-potsdam.de 0 4070159 2011-12-19 02:07:43
5237180 kashmirhiltonpk.com 0 No Rank 2011-12-19 02:07:47
5237181 kashmirgardens.com 0 No Rank 2011-12-19 02:07:50
5237182 kashkreme.com 0 No Rank 2011-12-19 02:07:51
5237183 kasemko.com 0 No Rank 2011-12-19 02:07:54
5237184 islandgetawaygiveaway.com 0 No Rank 2011-12-19 02:07:54
5237185 starmedia.conmishijos.com 0 104020 2011-12-19 02:07:59
5237186 autopartssurplusgroup.com 0 No Rank 2011-12-19 02:07:59
5237187 karpedium.com 0 No Rank 2011-12-19 02:08:02
5237188 hotelsaintemarieparis.com 0 No Rank 2011-12-19 02:08:02
5237189 karotinoli-m.com 0 21426035 2011-12-19 02:08:02
5237190 themilliondollarevent.com 0 No Rank 2011-12-19 02:08:05
5237191 goldenpondcommunities.com 0 9335228 2011-12-19 02:08:07
5237192 karo.sk 0 No Rank 2011-12-19 02:08:12
5237193 article.gym.o91.net 0 19203949 2011-12-19 02:08:14
5237194 karmelamusic.com 0 No Rank 2011-12-19 02:08:15
5237195 kariyergunleri2011.org 0 No Rank 2011-12-19 02:08:16
5237196 myweightlossadventure.com 0 No Rank 2011-12-19 02:08:17
5237197 apex-physical-therapy.com 0 No Rank 2011-12-19 02:08:18
5237198 karenleslieficke.com 0 No Rank 2011-12-19 02:08:19
5237199 improve-reading-skill.com 0 No Rank 2011-12-19 02:08:20
5237200 portland.stuartperrin.com 0 6729283 2011-12-19 02:08:21
5237201 action3dentertainment.com 0 No Rank 2011-12-19 02:08:22
5237202 karenbiain.com 0 No Rank 2011-12-19 02:08:23
5237203 karangstone.com 0 No Rank 2011-12-19 02:08:24
5237204 karammultipack.com 0 10067198 2011-12-19 02:08:26
5237205 kaqa.org 0 No Rank 2011-12-19 02:08:29
5237206 cricket.go4wallpapers.com 0 144157 2011-12-19 02:08:32
5237207 margarethenhof-hamburg.de 0 No Rank 2011-12-19 02:08:34
5237208 kaplanstudio.com 0 No Rank 2011-12-19 02:08:35
5237209 kaotiksystem.com 0 No Rank 2011-12-19 02:08:36
5237210 bakersbreakfastcookie.com 0 No Rank 2011-12-19 02:08:38
5237211 dierenpensiondeboerdik.nl 0 No Rank 2011-12-19 02:08:40
5237212 kanugacfo.org 0 No Rank 2011-12-19 02:08:40
5237213 kanongstudio.com 0 No Rank 2011-12-19 02:08:45
5237214 kandyshepherd.com 0 No Rank 2011-12-19 02:08:49
5237215 kanaiyatravels.com 0 No Rank 2011-12-19 02:08:49
5237216 1800-philippines-cars.com 0 3775277 2011-12-19 02:08:51
5237217 shepherdscentertopeka.org 0 No Rank 2011-12-19 02:08:55
5237218 performancesheetmetal.net 0 No Rank 2011-12-19 02:08:56
5237219 kambizaghili.com 0 No Rank 2011-12-19 02:08:57
5237220 kalamazoolinux.org 0 11931353 2011-12-19 02:09:02
5237221 kalamals.com 0 8168442 2011-12-19 02:09:07
5237222 greenvehiclerecycling.com 0 23761183 2011-12-19 02:09:08
5237223 kaia.ca 0 No Rank 2011-12-19 02:09:15
5237224 volyn.otmoem.info 0 14975819 2011-12-19 02:09:16
5237225 domain.chinadomain.com.cn 0 220692 2011-12-19 02:09:17
5237226 kai-ken.org 0 No Rank 2011-12-19 02:09:18
5237227 kaladim.se 0 No Rank 2011-12-19 02:09:19
5237228 xinnet.chinadomain.com.cn 0 220692 2011-12-19 02:09:20
5237229 kahnursery.com 0 No Rank 2011-12-19 02:09:22
5237230 catchthispresentation.com 0 No Rank 2011-12-19 02:09:24
5237231 kaew.net 0 No Rank 2011-12-19 02:09:26
5237232 xn----nmcracg5c1a2dweo.com 0 9130245 2011-12-19 02:09:26
5237233 homepages.caverock.net.nz 0 No Rank 2011-12-19 02:09:30
5237234 kadarin.be 0 No Rank 2011-12-19 02:09:31
5237235 philipsebusinessschool.com 0 9648533 2011-12-19 02:09:33
5237236 k9forensic.org 0 No Rank 2011-12-19 02:09:36
5237237 k2-furniture.com 0 No Rank 2011-12-19 02:09:42
5237238 forum.anticonceptionale.ro 0 97925 2011-12-19 02:09:46
5237239 jzjxdq.com 0 No Rank 2011-12-19 02:09:46
5237240 geowebstaffing.hrpanel.com 0 2024165 2011-12-19 02:09:48
5237241 allergycookingmadeeasy.com 0 No Rank 2011-12-19 02:09:52
5237242 juventudcentral.com 0 No Rank 2011-12-19 02:10:02
5237243 jordannewshoesrelease.info 0 No Rank 2011-12-19 02:10:07
5237244 kapot-nissan.bamper.org 0 4643301 2011-12-19 02:10:10
5237245 justinmccall.co.za 0 7207581 2011-12-19 02:10:13
5237246 enchanting-southamerica.de 0 6624550 2011-12-19 02:10:13
5237247 clevesculturalprojects.org 0 No Rank 2011-12-19 02:10:13
5237248 highend-systemberatung.com 0 No Rank 2011-12-19 02:10:14
5237249 jordanbasketballshoes.info 0 No Rank 2011-12-19 02:10:14
5237250 just4youspa.com 0 No Rank 2011-12-19 02:10:17
5237251 bostonbraves.400hitter.com 0 23489333 2011-12-19 02:10:17
5237252 tycherfamilyfoundation.com 0 No Rank 2011-12-19 02:10:21
5237253 justagirl05.com 0 16909728 2011-12-19 02:10:22
5237254 juo.com 0 469651 2011-12-19 02:10:23
5237255 rebocommercialflooring.com 0 No Rank 2011-12-19 02:10:26
5237256 hausundgrund-euskirchen.de 0 No Rank 2011-12-19 02:10:28
5237257 jung.marielouise.free.fr 0 No Rank 2011-12-19 02:10:30
5237258 jumpinjacks.us 0 10112805 2011-12-19 02:10:35
5237259 detoxinformationcenter.com 0 No Rank 2011-12-19 02:10:36
5237260 jumbo2.com 0 No Rank 2011-12-19 02:10:39
5237261 jeansdamenlagerverkauf.com 0 No Rank 2011-12-19 02:10:39
5237262 123europe-milanohotels.com 0 No Rank 2011-12-19 02:10:40
5237263 jumbochinanc.com 0 18838139 2011-12-19 02:10:41
5237264 juliasaltzman.com 0 No Rank 2011-12-19 02:10:42
5237265 smartprintingsolutions.net 0 20592108 2011-12-19 02:10:42
5237266 juliajames.org 0 20625479 2011-12-19 02:10:50
5237267 max.belarusianwomen.ru-nw.com 0 2457812 2011-12-19 02:10:51
5237268 fleischerei-scharnowski.de 0 No Rank 2011-12-19 02:10:52
5237269 judaicartbuyer.com 0 No Rank 2011-12-19 02:10:53
5237270 juangarzainsurance.com 0 No Rank 2011-12-19 02:10:56
5237271 jtschultz.com 0 16790320 2011-12-19 02:10:57
5237272 shop69571182.taobao.com 0 15 2011-12-19 02:10:59
5237273 jssr2005.jp 0 No Rank 2011-12-19 02:11:05
5237274 jsslegal.com 0 21263063 2011-12-19 02:11:06
5237275 jss-ebetsu.com 0 No Rank 2011-12-19 02:11:11
5237276 jskilken.com 0 8692909 2011-12-19 02:11:15
5237277 jsevents.com 0 No Rank 2011-12-19 02:11:15
5237278 jrproductionspgh.com 0 21856538 2011-12-19 02:11:29
5237279 aborteneva1991.hotbox.ru 0 51351 2011-12-19 02:11:30
5237280 jprtargets.com 0 No Rank 2011-12-19 02:11:34
5237281 zemskov1987.hotbox.ru 0 51351 2011-12-19 02:11:34
5237282 jpkrescenthomes.com 0 No Rank 2011-12-19 02:11:38
5237283 batyrov18.hotbox.ru 0 51351 2011-12-19 02:11:38
5237284 structurs.ru 0 No Rank 2011-12-19 02:11:41
5237285 stroitelu.ru 0 No Rank 2011-12-19 02:11:42
5237286 joylifeclub.org 0 No Rank 2011-12-19 02:11:43
5237287 pozolotnikov1.hotbox.ru 0 51351 2011-12-19 02:11:43
5237288 autoaufkleberbaby.info 0 No Rank 2011-12-19 02:11:46
5237289 joylandrestorationproject.org 0 16754732 2011-12-19 02:11:46
5237290 sostoyanie.vn.ua 0 No Rank 2011-12-19 02:11:48
5237291 85design.net 0 14324373 2011-12-19 02:11:48
5237292 merkulov1986.hotbox.ru 0 51351 2011-12-19 02:11:48
5237293 joycescott.org 0 No Rank 2011-12-19 02:11:51
5237294 gurbeteli.com 0 209825 2011-12-19 02:11:52
5237295 elizaveta-rassohina8.hotbox.ru 0 51351 2011-12-19 02:11:52
5237296 journeymenpainting.com 0 No Rank 2011-12-19 02:11:54
5237297 taranin-klavdij10.hotbox.ru 0 51351 2011-12-19 02:11:57
5237298 ryuriknerataev6.hotbox.ru 0 51351 2011-12-19 02:12:01
5237299 jpbphoto.be 0 15810356 2011-12-19 02:12:03
5237300 lyricsofyourartist.com.ar 0 2428110 2011-12-19 02:12:08
5237301 joshualangstaff.com 0 No Rank 2011-12-19 02:12:08
5237302 joseki.org 0 3655183 2011-12-19 02:12:10
5237303 jordangomez.com 0 16694452 2011-12-19 02:12:12
5237304 v-sovin1964.hotbox.ru 0 51351 2011-12-19 02:12:13
5237305 jonzaremba.com 0 No Rank 2011-12-19 02:12:15
5237306 lyuksen.kalinkov1999.hotbox.ru 0 51351 2011-12-19 02:12:17
5237307 jonhueyphotography.com 0 No Rank 2011-12-19 02:12:19
5237308 jonas.follesoe.no 0 1277760 2011-12-19 02:12:22
5237309 jollyworks.com 0 7681607 2011-12-19 02:12:25
5237310 jollydevelopment.com 0 17168549 2011-12-19 02:12:26
5237311 johnyrockstar.com 0 No Rank 2011-12-19 02:12:28
5237312 apparichith.wordpress.com 0 5253565 2011-12-19 02:12:29
5237313 bazhena-ivahina1993.hotbox.ru 0 51351 2011-12-19 02:12:32
5237314 johnsoncontrols.de 0 573019 2011-12-19 02:12:35
5237315 ootugomori.com 0 4497018 2011-12-19 02:12:36
5237316 letovgerold18.hotbox.ru 0 51351 2011-12-19 02:12:36
5237317 johntaylor.co 0 7458104 2011-12-19 02:12:39
5237318 johnmcknightlaw.com 0 No Rank 2011-12-19 02:12:44
5237319 johnjonesdesign.com 0 No Rank 2011-12-19 02:12:45
5237320 sabina1970.hotbox.ru 0 51351 2011-12-19 02:12:46
5237321 johnglasermemorial.com 0 No Rank 2011-12-19 02:12:46
5237322 john.com.ve 0 3384345 2011-12-19 02:12:51
5237323 johander.com 0 No Rank 2011-12-19 02:12:51
5237324 pavlakutlukova50.hotbox.ru 0 51351 2011-12-19 02:12:54
5237325 jogjacamp.co.id 0 620464 2011-12-19 02:12:55
5237326 joessportbikes.com 0 No Rank 2011-12-19 02:12:59
5237327 b-senkova1988.hotbox.ru 0 51351 2011-12-19 02:13:01
5237328 commission-central.alexandriakyberry.xanga.com 0 3449 2011-12-19 02:13:03
5237329 jocurivirtuale.ro 0 No Rank 2011-12-19 02:13:04
5237330 homepager.tripod.belarusianwomen.ru-nw.com 0 2457812 2011-12-19 02:13:04
5237331 alexandriakyberry.xanga.com 0 3449 2011-12-19 02:13:09
5237332 smazki-masla.ru 0 No Rank 2011-12-19 02:13:09
5237333 maple-shion.net 0 3839767 2011-12-19 02:13:12
5237334 natan1962.hotbox.ru 0 51351 2011-12-19 02:13:15
5237335 cn-ua.abcname.net 0 400507 2011-12-19 02:13:15
5237336 kurisova1977.hotbox.ru 0 51351 2011-12-19 02:13:20
5237337 joansblog.joantruesuccess11.ws 0 205439 2011-12-19 02:13:23
5237338 joangreencpa.com 0 No Rank 2011-12-19 02:13:24
5237339 zolotushnikova22.hotbox.ru 0 51351 2011-12-19 02:13:26
5237340 jnr2.com 0 No Rank 2011-12-19 02:13:28
5237341 inga14.hotbox.ru 0 51351 2011-12-19 02:13:30
5237342 jmaysllc.com 0 No Rank 2011-12-19 02:13:31
5237343 jmarstreasurechest.com 0 No Rank 2011-12-19 02:13:32
5237344 freegamesbase.com 0 8503114 2011-12-19 02:13:33
5237345 jkstoneproducts.com 0 No Rank 2011-12-19 02:13:36
5237346 zhdan27.hotbox.ru 0 51351 2011-12-19 02:13:37
5237347 jknesek.com 0 No Rank 2011-12-19 02:13:40
5237348 gertruda1971.hotbox.ru 0 51351 2011-12-19 02:13:43
5237349 jkinco.com 0 No Rank 2011-12-19 02:13:44
5237350 jkmedical.co.in 0 No Rank 2011-12-19 02:13:47
5237351 a-vasilcev14.hotbox.ru 0 51351 2011-12-19 02:13:48
5237352 t.arishina1982.hotbox.ru 0 51351 2011-12-19 02:13:52
5237353 jimsairtool.com 0 No Rank 2011-12-19 02:13:54
5237354 jimmypowell.com 0 19764018 2011-12-19 02:13:56
5237355 childsafeproducts.com 0 23981823 2011-12-19 02:13:57
5237356 fedosijzhirov1985.hotbox.ru 0 51351 2011-12-19 02:13:57
5237357 star3888.blogspot.com 0 26896245 2011-12-19 02:14:00
5237358 jimharmonphotos.com 0 No Rank 2011-12-19 02:14:02
5237359 dalnilo.com 0 4004923 2011-12-19 02:14:02
5237360 jimbittner.com 0 No Rank 2011-12-19 02:14:02
5237361 v-sidorenkov26.hotbox.ru 0 51351 2011-12-19 02:14:03
5237362 jibrankutik.com 0 No Rank 2011-12-19 02:14:11
5237363 jillducey.com 0 No Rank 2011-12-19 02:14:11
5237364 jhjenningscpa.com 0 No Rank 2011-12-19 02:14:17
5237365 erofej.kobrin2000.hotbox.ru 0 51351 2011-12-19 02:14:17
5237366 jfsoft.net 0 13227352 2011-12-19 02:14:20
5237367 jfkmcg.com 0 9918498 2011-12-19 02:14:25
5237368 veresov26.hotbox.ru 0 51351 2011-12-19 02:14:25
5237369 jfcotelaw.com 0 No Rank 2011-12-19 02:14:29
5237370 jeweliards.com 0 No Rank 2011-12-19 02:14:29
5237371 shabasheva18.hotbox.ru 0 51351 2011-12-19 02:14:29
5237372 jesusworksministry.org 0 21653548 2011-12-19 02:14:33
5237373 jetwayprivateair.com 0 No Rank 2011-12-19 02:14:35
5237374 triodin2002.hotbox.ru 0 51351 2011-12-19 02:14:38
5237375 jesoloannunci.com 0 No Rank 2011-12-19 02:14:38
5237376 jesseskcbbq.com 0 No Rank 2011-12-19 02:14:38
5237377 ferienwohnung-holub.de 0 No Rank 2011-12-19 02:14:41
5237378 jerseysportsnow.com 0 9988901 2011-12-19 02:14:42
5237379 jerrylandjewelers.net 0 No Rank 2011-12-19 02:14:42
5237380 jensaarai.com 0 15501770 2011-12-19 02:14:47
5237381 ebbombers.400hitter.com 0 23489333 2011-12-19 02:14:50
5237382 jennlar.com 0 No Rank 2011-12-19 02:14:52
5237383 gorillasafaritrails.com 0 4648303 2011-12-19 02:14:56
5237384 jenniferbellahphotography.com 0 No Rank 2011-12-19 02:14:56
5237385 oceanflighttraining.com 0 No Rank 2011-12-19 02:14:59
5237386 babygluckwunsche.info 0 No Rank 2011-12-19 02:15:00
5237387 creditcardsselection.com 0 14178853 2011-12-19 02:15:02
5237388 jeffholte.com 0 No Rank 2011-12-19 02:15:05
5237389 heilpraktiker-frechen.de 0 No Rank 2011-12-19 02:15:11
5237390 best1-2buy.millionaire-status.com 0 No Rank 2011-12-19 02:15:15
5237391 jean-jaures.org 0 2146173 2011-12-19 02:15:16
5237392 jennifer-wu.com 0 No Rank 2011-12-19 02:15:18
5237393 unitedcreditpartners.com 0 9030344 2011-12-19 02:15:18
5237394 magicmacentertainment.com 0 No Rank 2011-12-19 02:15:20
5237395 jcwiw.com 0 No Rank 2011-12-19 02:15:20
5237396 download-karaoke-song.com 0 12639515 2011-12-19 02:15:22
5237397 dev.academypeople.co.uk 0 13639185 2011-12-19 02:15:23
5237398 jcdegraft.com 0 No Rank 2011-12-19 02:15:25
5237399 metroredsox.400hitter.com 0 23489333 2011-12-19 02:15:26
5237400 jcarterbreed.com 0 9978696 2011-12-19 02:15:29
5237401 jbsoap.com 0 No Rank 2011-12-19 02:15:33
5237402 nexteraenergyresource.com 0 No Rank 2011-12-19 02:15:34
5237403 omegax.nl 0 17297054 2011-12-19 02:15:37
5237404 limesbedandbreakfast.co.uk 0 No Rank 2011-12-19 02:15:38
5237405 friedsquid.altpornnow.com 0 No Rank 2011-12-19 02:15:39
5237406 jaynelson.com 0 No Rank 2011-12-19 02:15:40
5237407 homepager.tripod.alexandriakyberry.xanga.com 0 3449 2011-12-19 02:15:42
5237408 jaylally.com 0 No Rank 2011-12-19 02:15:43
5237409 doublebarrelmotionlabs.com 0 18544507 2011-12-19 02:15:43
5237410 jaycool.net 0 No Rank 2011-12-19 02:15:45
5237411 jayalexander.com 0 4712697 2011-12-19 02:15:47
5237412 jaxonlaneband.com 0 No Rank 2011-12-19 02:15:49
5237413 jasperspeakbistro.com 0 13066894 2011-12-19 02:15:52
5237414 afrodisiac-naturalhair.com 0 20108575 2011-12-19 02:15:54
5237415 jasonhendersonlaw.com 0 No Rank 2011-12-19 02:15:56
5237416 onlinedegreesdirect.com 0 7069221 2011-12-19 02:16:01
5237417 banglafm24.blogspot.com 0 No Rank 2011-12-19 02:16:02
5237418 pr.parentshelpingteens.com 0 15120107 2011-12-19 02:16:06
5237419 jansitts.com 0 14289342 2011-12-19 02:16:07
5237420 janniewilliams.com 0 10243213 2011-12-19 02:16:11
5237421 janasellsseashore.com 0 No Rank 2011-12-19 02:16:15
5237422 janeqinphotoblog.com 0 22959804 2011-12-19 02:16:15
5237423 georgie628927487.positivestrongeryou.com 0 42878 2011-12-19 02:16:15
5237424 chernigov.povodok.info 0 No Rank 2011-12-19 02:16:17
5237425 123europe-genevehotels.com 0 No Rank 2011-12-19 02:16:19
5237426 jamminjumps.com 0 No Rank 2011-12-19 02:16:19
5237427 janahubinska.com 0 No Rank 2011-12-19 02:16:21
5237428 jamierowephoto.com 0 No Rank 2011-12-19 02:16:24
5237429 earnmoneyandrewards.info 0 No Rank 2011-12-19 02:16:24
5237430 jamesmar.com 0 23818197 2011-12-19 02:16:25
5237431 diftemixcosomosfamilia.com 0 No Rank 2011-12-19 02:16:27
5237432 heqiu.partner.superdns.org 0 1232923 2011-12-19 02:16:27
5237433 jameshernandez.org 0 No Rank 2011-12-19 02:16:30
5237434 jamesdunnettarchitects.com 0 No Rank 2011-12-19 02:16:33
5237435 jamescwilsondds.com 0 No Rank 2011-12-19 02:16:35
5237436 jameschimney.com 0 No Rank 2011-12-19 02:16:39
5237437 highstreetwilliamsburg.com 0 16653802 2011-12-19 02:16:40
5237438 nexteraenergyresource.info 0 No Rank 2011-12-19 02:16:41
5237439 jaknarysowac.pl 0 No Rank 2011-12-19 02:16:43
5237440 jakie-studia-wybrac.pl 0 11578715 2011-12-19 02:16:44
5237441 deutscher-branchenmarkt.de 0 No Rank 2011-12-19 02:16:45
5237442 jainfaries.com 0 12246728 2011-12-19 02:16:46
5237443 jailbreakipad.org 0 738978 2011-12-19 02:16:48
5237444 jagmark.se 0 No Rank 2011-12-19 02:16:53
5237445 krizis-ua.info 0 No Rank 2011-12-19 02:16:54
5237446 123-booking-hotel-paris.fr 0 No Rank 2011-12-19 02:16:54
5237447 jaggedice.com 0 No Rank 2011-12-19 02:16:55
5237448 jafnaf.com 0 18518653 2011-12-19 02:16:59
5237449 peconiclanding.hrpanel.com 0 2024165 2011-12-19 02:17:01
5237450 ruffwooddigitalstudios.com 0 No Rank 2011-12-19 02:17:02
5237451 jacobwisejazz.com 0 No Rank 2011-12-19 02:17:05
5237452 bloggerleads.blogspot.com 0 No Rank 2011-12-19 02:17:07
5237453 jacobpetersen.dk 0 No Rank 2011-12-19 02:17:09
5237454 ravenfolderverspreiding.nl 0 No Rank 2011-12-19 02:17:10
5237455 baqao.com 0 No Rank 2011-12-19 02:17:12
5237456 jacksoninsuranceservicesllc.com 0 No Rank 2011-12-19 02:17:15
5237457 lacostadentalexcellence.com 0 4009577 2011-12-19 02:17:15
5237458 jacksontetonplan.com 0 No Rank 2011-12-19 02:17:15
5237459 jackson-alexander.com 0 No Rank 2011-12-19 02:17:17
5237460 franzoesische-bulldogge.net 0 404495 2011-12-19 02:17:23
5237461 realschule-am-buchenberg.de 0 3328476 2011-12-19 02:17:27
5237462 jaberschool.ir 0 27219041 2011-12-19 02:17:29
5237463 izvormusic.com 0 3835136 2011-12-19 02:17:32
5237464 enchanting-southamerica.com 0 21581338 2011-12-19 02:17:32
5237465 highdeserthomeschoolers.com 0 No Rank 2011-12-19 02:17:35
5237466 iwdkenstanton.com 0 No Rank 2011-12-19 02:17:37
5237467 sportsbettingguidestore.com 0 No Rank 2011-12-19 02:17:41
5237468 ivyoohak.com 0 No Rank 2011-12-19 02:17:41
5237469 reelectsandraburgessorr.com 0 No Rank 2011-12-19 02:17:41
5237470 123-booking-hotel-paris.com 0 No Rank 2011-12-19 02:17:44
5237471 ivygcl.com 0 No Rank 2011-12-19 02:17:45
5237472 donostiahirihezitzailea.org 0 No Rank 2011-12-19 02:17:48
5237473 1234star-hotelsinlondon.com 0 No Rank 2011-12-19 02:17:50
5237474 ivybridgecafe.com 0 No Rank 2011-12-19 02:17:51
5237475 iventgames.com 0 27470513 2011-12-19 02:17:52
5237476 cottolengocenterchaaria.org 0 No Rank 2011-12-19 02:17:53
5237477 iuktax.com 0 No Rank 2011-12-19 02:17:55
5237478 stop-bedwetting-forever.com 0 No Rank 2011-12-19 02:17:55
5237479 quickweightloss.hrpanel.com 0 2024165 2011-12-19 02:17:59
5237480 itwizardsinc.com 0 No Rank 2011-12-19 02:18:01
5237481 prestige-dental-care.com.my 0 11935226 2011-12-19 02:18:06
5237482 itsrob.com 0 No Rank 2011-12-19 02:18:07
5237483 lakehartwellassociation.org 0 8685656 2011-12-19 02:18:09
5237484 mackareyphysicaltherapy.com 0 23090574 2011-12-19 02:18:09
5237485 tee.parentshelpingteens.com 0 15120107 2011-12-19 02:18:11
5237486 1800-singapore-property.com 0 No Rank 2011-12-19 02:18:13
5237487 its-a-bird.com 0 No Rank 2011-12-19 02:18:14
5237488 itrainscotland.com 0 25319157 2011-12-19 02:18:17
5237489 weymouthgrays.400hitter.com 0 23489333 2011-12-19 02:18:17
5237490 ithc.com 0 No Rank 2011-12-19 02:18:23
5237491 itpov.info 0 16254188 2011-12-19 02:18:24
5237492 ithacaspine.com 0 No Rank 2011-12-19 02:18:25
5237493 sports.dailycontributor.com 0 183580 2011-12-19 02:18:26
5237494 myaspartameexperiment.com 0 8524835 2011-12-19 02:18:33
5237495 cxt.gym.o91.net 0 19203949 2011-12-19 02:18:33
5237496 extranet.bayvalleyfoods.com 0 2909180 2011-12-19 02:18:35
5237497 italiancypress.net 0 13176672 2011-12-19 02:18:37
5237498 price.kamin.webstarts.com 0 7066 2011-12-19 02:18:39
5237499 elvispresleyenterprizes.com 0 20909841 2011-12-19 02:18:42
5237500 itac-co.com 0 No Rank 2011-12-19 02:18:45
5237501 itoklantenservicecentrum.nl 0 5951615 2011-12-19 02:18:47
5237502 it-regime-management.net 0 No Rank 2011-12-19 02:18:49
5237503 isuzuparts.org 0 No Rank 2011-12-19 02:18:51
5237504 karacsonyiajandek.mendan.hu 0 No Rank 2011-12-19 02:18:52
5237505 missdiorcouture.souliss.com 0 1492563 2011-12-19 02:18:56
5237506 istgraph.com 0 No Rank 2011-12-19 02:18:57
5237507 potomacfinishingcompany.com 0 No Rank 2011-12-19 02:18:58
5237508 kellymichaelcharleslind.com 0 No Rank 2011-12-19 02:18:58
5237509 iss-lr.com 0 No Rank 2011-12-19 02:18:58
5237510 fitnesstimes.altpornnow.com 0 No Rank 2011-12-19 02:18:58
5237511 israelscreeklutheranparish.com 0 No Rank 2011-12-19 02:19:01
5237512 xn--42c8arzgc5gmb8e5frc.com 0 No Rank 2011-12-19 02:19:05
5237513 ns804.abcname.net 0 400507 2011-12-19 02:19:10
5237514 asthma.bestblogger.info 0 4339466 2011-12-19 02:19:11
5237515 island-solar.com 0 No Rank 2011-12-19 02:19:12
5237516 chicken-recipes-cooking.com 0 No Rank 2011-12-19 02:19:13
5237517 islamkonferenz.com 0 No Rank 2011-12-19 02:19:15
5237518 isismoontemple.com 0 5813991 2011-12-19 02:19:19
5237519 southlandshoppingcenter.com 0 No Rank 2011-12-19 02:19:20
5237520 isilencer.com 0 No Rank 2011-12-19 02:19:21
5237521 poplarbluffchiropractic.com 0 23221369 2011-12-19 02:19:21
5237522 northcarolina-drugrehab.com 0 No Rank 2011-12-19 02:19:23
5237523 weather.news.kamin.webstarts.com 0 7066 2011-12-19 02:19:25
5237524 iscustomuniforms.com 0 No Rank 2011-12-19 02:19:25
5237525 isca.ca 0 16166755 2011-12-19 02:19:30
5237526 flughafentransfer-boerse.de 0 No Rank 2011-12-19 02:19:31
5237527 irvinedentalcare.com 0 2492307 2011-12-19 02:19:32
5237528 ironhorsemotorcompany.com 0 No Rank 2011-12-19 02:19:38
5237529 axapta.sandrewmetronome.com 0 10592346 2011-12-19 02:19:40
5237530 iron-condor.com 0 No Rank 2011-12-19 02:19:42
5237531 irocyoga.com 0 No Rank 2011-12-19 02:19:44
5237532 crownandglorybiblecenter.com 0 No Rank 2011-12-19 02:19:46
5237533 irishwholesale.com 0 10174207 2011-12-19 02:19:46
5237534 homepager.tripod.gym.o91.net 0 19203949 2011-12-19 02:19:49
5237535 bellsouthcashbackcoupons.com 0 No Rank 2011-12-19 02:19:53
5237536 irenelawoffice.com 0 No Rank 2011-12-19 02:19:56
5237537 ireneabraham.com 0 No Rank 2011-12-19 02:19:57
5237538 maps.alexandriakyberry.xanga.com 0 3449 2011-12-19 02:19:57
5237539 iraqdutch.com 0 No Rank 2011-12-19 02:20:00
5237540 caribbeangetawaygiveaway.com 0 No Rank 2011-12-19 02:20:03
5237541 iprotectservices.com 0 No Rank 2011-12-19 02:20:06
5237542 louisbraillebicentennial.com 0 18674354 2011-12-19 02:20:13
5237543 ipllc.us 0 No Rank 2011-12-19 02:20:16
5237544 iraq-enterprise.com 0 11578096 2011-12-19 02:20:20
5237545 iphoneappblueprints.com 0 No Rank 2011-12-19 02:20:20
5237546 contact.roselandproperty.com 0 2015240 2011-12-19 02:20:24
5237547 community.iphone-magazine.de 0 93030 2011-12-19 02:20:27
5237548 iowareptilerescue.com 0 No Rank 2011-12-19 02:20:33
5237549 iosteo.com 0 No Rank 2011-12-19 02:20:37
5237550 ionikapro.com 0 4930987 2011-12-19 02:20:39
5237551 roboticautomationsystems.com 0 8257376 2011-12-19 02:20:41
5237552 inverseetfinvesting.com 0 No Rank 2011-12-19 02:20:47
5237553 introduces.de 0 No Rank 2011-12-19 02:20:49
5237554 vegan-vegetarian-recipes.com 0 21958749 2011-12-19 02:20:54
5237555 intisoccer.org 0 No Rank 2011-12-19 02:20:55
5237556 intimations.fr 0 No Rank 2011-12-19 02:20:57
5237557 hamiltonblakerecruitment.com 0 No Rank 2011-12-19 02:20:58
5237558 store1.receive-sms.com 0 25804752 2011-12-19 02:21:02
5237559 usedcars.connectcarindia.com 0 3687584 2011-12-19 02:21:03
5237560 interstateccc.com 0 No Rank 2011-12-19 02:21:04
5237561 stonehamsabers.400hitter.com 0 23489333 2011-12-19 02:21:06
5237562 interplayconsulting.com 0 No Rank 2011-12-19 02:21:06
5237563 internetpork.com 0 7353237 2011-12-19 02:21:15
5237564 internetdomainian.com 0 No Rank 2011-12-19 02:21:17
5237565 internalharmony.biz 0 No Rank 2011-12-19 02:21:20
5237566 preventinginsiderthreats.com 0 No Rank 2011-12-19 02:21:23
5237567 intermaagency.com 0 No Rank 2011-12-19 02:21:28
5237568 interhaus.lv 0 19774599 2011-12-19 02:21:30
5237569 intercultural-dynamics.com 0 No Rank 2011-12-19 02:21:31
5237570 jayarel.com 0 No Rank 2011-12-19 02:21:33
5237571 interbrokersonline.com 0 6801986 2011-12-19 02:21:35
5237572 biketek-heated-clothing.co.uk 0 15475715 2011-12-19 02:21:36
5237573 interactivefolio.com 0 No Rank 2011-12-19 02:21:37
5237574 lynnb.parentshelpingteens.com 0 15120107 2011-12-19 02:21:38
5237575 schoonheidssalonjacqueline.nl 0 10293359 2011-12-19 02:21:40
5237576 jobs-search-jobs-listings.com 0 No Rank 2011-12-19 02:21:42
5237577 sputnik.blueprintsolution.com 0 10101179 2011-12-19 02:21:44
5237578 lanie.parentshelpingteens.com 0 15120107 2011-12-19 02:21:45
5237579 integrityyachtsales.com 0 No Rank 2011-12-19 02:21:47
5237580 chernovtsy.abcname.net 0 400507 2011-12-19 02:21:48
5237581 blog.alexandriakyberry.xanga.com 0 3449 2011-12-19 02:21:50
5237582 integratedconsultantsllc.com 0 No Rank 2011-12-19 02:21:51
5237583 integratedbusinessservices.ca 0 No Rank 2011-12-19 02:21:52
5237584 carbonneutraldestinations.com 0 19543005 2011-12-19 02:21:52
5237585 store1.alexandriakyberry.xanga.com 0 3449 2011-12-19 02:21:57
5237586 betsy.parentshelpingteens.com 0 15120107 2011-12-19 02:21:58
5237587 insurancestop.com 0 16203817 2011-12-19 02:21:59
5237588 ford-cmax.bamper.org 0 4643301 2011-12-19 02:22:00
5237589 institute-20.com 0 No Rank 2011-12-19 02:22:05
5237590 inspiredwomenevent.com 0 21942068 2011-12-19 02:22:16
5237591 insolentboy.com 0 No Rank 2011-12-19 02:22:18
5237592 insindfoodvendingmachines.com 0 No Rank 2011-12-19 02:22:21
5237593 insidemusicteaching.com 0 20018719 2011-12-19 02:22:23
5237594 galleriaatpittsburghmills.com 0 No Rank 2011-12-19 02:22:24
5237595 yaseminforum.com 0 8617010 2011-12-19 02:22:25
5237596 inparables.com 0 No Rank 2011-12-19 02:22:37
5237597 torontoautomotiveservices.com 0 No Rank 2011-12-19 02:22:38
5237598 innovativeintegration.net 0 No Rank 2011-12-19 02:22:40
5237599 hydrogen-generator-for-car.cn 0 No Rank 2011-12-19 02:22:41
5237600 innovativehairreplacements.com 0 No Rank 2011-12-19 02:22:41
5237601 123europe-barcelonahotels.com 0 No Rank 2011-12-19 02:22:44
5237602 socialnetworknewsonline.bz.cm 0 141560 2011-12-19 02:22:46
5237603 inlandtitle.com 0 No Rank 2011-12-19 02:22:49
5237604 inlandlimbandbrace.com 0 No Rank 2011-12-19 02:22:52
5237605 tristontoparry.blog.ca 0 22776 2011-12-19 02:22:52
5237606 innovationcentertcrd.com 0 No Rank 2011-12-19 02:22:52
5237607 inlandempireit.com 0 17817704 2011-12-19 02:22:55
5237608 inlandempireemploymentlawyer.com 0 18164824 2011-12-19 02:22:56
5237609 integritydigitalforensics.net 0 No Rank 2011-12-19 02:22:56
5237610 inkworkspress.org 0 9343310 2011-12-19 02:23:00
5237611 miraclemileshoppingcenter.com 0 10841646 2011-12-19 02:23:00
5237612 inkenchanters.com 0 No Rank 2011-12-19 02:23:03
5237613 inkarihoteles.com 0 No Rank 2011-12-19 02:23:03
5237614 jeane.parentshelpingteens.com 0 15120107 2011-12-19 02:23:05
5237615 initiallyspeaking.com 0 17770357 2011-12-19 02:23:12
5237616 prescriptiondrugtreatment.net 0 No Rank 2011-12-19 02:23:13
5237617 ellen.parentshelpingteens.com 0 15120107 2011-12-19 02:23:15
5237618 mslis.parentshelpingteens.com 0 15120107 2011-12-19 02:23:17
5237619 infrabios.com 0 188901 2011-12-19 02:23:21
5237620 schuetzenverein-hamersleben.de 0 No Rank 2011-12-19 02:23:29
5237621 inforeklama.lt 0 8401489 2011-12-19 02:23:30
5237622 suplementacionnutricional.info 0 No Rank 2011-12-19 02:23:31
5237623 music.alexandriakyberry.xanga.com 0 3449 2011-12-19 02:23:32
5237624 infoberlin.org 0 1740147 2011-12-19 02:23:32
5237625 influenceusa.com 0 No Rank 2011-12-19 02:23:39
5237626 info4eyesurgery.com 0 11807583 2011-12-19 02:23:40
5237627 projectstudio.billyblue.com.au 0 19449155 2011-12-19 02:23:40
5237628 infirstgear.com 0 No Rank 2011-12-19 02:23:44
5237629 apartmany-chorvatsko-mimice.cz 0 No Rank 2011-12-19 02:23:44
5237630 carhirebristol.org 0 No Rank 2011-12-19 02:23:45
5237631 infinitiarbitrage.com 0 No Rank 2011-12-19 02:23:47
5237632 south-wales-trail-riders.co.uk 0 No Rank 2011-12-19 02:23:57
5237633 induce-projects.de 0 18593545 2011-12-19 02:23:59
5237634 industriaalimenticia.com 0 1007445 2011-12-19 02:24:00
5237635 endofbedstorage.altpornnow.com 0 No Rank 2011-12-19 02:24:01
5237636 indoexchanger.com 0 645550 2011-12-19 02:24:03
5237637 mckayclubbeacons.400hitter.com 0 23489333 2011-12-19 02:24:04
5237638 indiotizate.com 0 15177201 2011-12-19 02:24:06
5237639 pdavis.parentshelpingteens.com 0 15120107 2011-12-19 02:24:08
5237640 indigoservicesolutions.com 0 17027411 2011-12-19 02:24:12
5237641 indiaquickfacts.com 0 No Rank 2011-12-19 02:24:14
5237642 indiaoutline.com 0 20358217 2011-12-19 02:24:15
5237643 klantenservicekenniscentrum.nl 0 11673506 2011-12-19 02:24:16
5237644 charlesshinninvestigations.com 0 No Rank 2011-12-19 02:24:21
5237645 indianovenutah.com 0 23935252 2011-12-19 02:24:22
5237646 orvilleniwstid7.livejournal.com 0 102 2011-12-19 02:24:22
5237647 paulma.parentshelpingteens.com 0 15120107 2011-12-19 02:24:23
5237648 boyarka.bronedveri.info 0 4691041 2011-12-19 02:24:25
5237649 jugendfeuerwehr-sperlhammer.de 0 23155484 2011-12-19 02:24:25
5237650 indian-rights.com 0 20181048 2011-12-19 02:24:29
5237651 indiaarietickets.com 0 No Rank 2011-12-19 02:24:32
5237652 morrow.parentshelpingteens.com 0 15120107 2011-12-19 02:24:32
5237653 lorrie.parentshelpingteens.com 0 15120107 2011-12-19 02:24:36
5237654 darren.parentshelpingteens.com 0 15120107 2011-12-19 02:24:38
5237655 inazumarock.com 0 1000391 2011-12-19 02:24:43
5237656 nissan-pick-up.avtosklad.net 0 1790672 2011-12-19 02:24:44
5237657 in-solution.us 0 No Rank 2011-12-19 02:24:50
5237658 imtmontana.com 0 No Rank 2011-12-19 02:24:51
5237659 watchingmicrosoftlikeahawk.com 0 8478686 2011-12-19 02:24:52
5237660 bestpresidentialbiographies.com 0 5058741 2011-12-19 02:24:52
5237661 rzrpwrwngcstrsctr.co.cc 0 No Rank 2011-12-19 02:24:55
5237662 litigationsupportservicesnc.com 0 18179263 2011-12-19 02:24:56
5237663 anthony.parentshelpingteens.com 0 15120107 2011-12-19 02:24:59
5237664 lvteens.parentshelpingteens.com 0 15120107 2011-12-19 02:25:01
5237665 implantti.fi 0 No Rank 2011-12-19 02:25:02
5237666 tomasin.parentshelpingteens.com 0 15120107 2011-12-19 02:25:03
5237667 impactrx.com 0 3315312 2011-12-19 02:25:05
5237668 impactonice.com 0 21754409 2011-12-19 02:25:12
5237669 tracywa.parentshelpingteens.com 0 15120107 2011-12-19 02:25:13
5237670 immo-creuse.com 0 13689617 2011-12-19 02:25:16
5237671 imaginehypnotics.com 0 No Rank 2011-12-19 02:25:20
5237672 imagined-community.com 0 No Rank 2011-12-19 02:25:24
5237673 greatsouthernshoppingcenter.com 0 7657560 2011-12-19 02:25:25
5237674 imaginaryink.org 0 12479011 2011-12-19 02:25:26
5237675 imagestandb.com 0 20415817 2011-12-19 02:25:28
5237676 whowhere.alexandriakyberry.xanga.com 0 3449 2011-12-19 02:25:29
5237677 imagesbyjh.com 0 23007550 2011-12-19 02:25:30
5237678 imageonesystems.com 0 6194953 2011-12-19 02:25:33
5237679 thevillageatpittsburghmills.com 0 14930821 2011-12-19 02:25:33
5237680 im-paradies.de 0 No Rank 2011-12-19 02:25:34
5237681 filesonicpremiumaccount.com 0 14167779 2011-12-19 02:25:36
5237682 museumoftheamericanrailroad.org 0 8575636 2011-12-19 02:25:38
5237683 superbonlinecasinodirectory.com 0 No Rank 2011-12-19 02:25:41
5237684 klantinteractiekenniscentrum.nl 0 2205541 2011-12-19 02:25:47
5237685 illustratedfemale.com 0 11923432 2011-12-19 02:25:47
5237686 illyes-dombovar.hu 0 No Rank 2011-12-19 02:25:48
5237687 illianamayfest.com 0 No Rank 2011-12-19 02:25:52
5237688 businessopportunityexplosion.com 0 No Rank 2011-12-19 02:25:53
5237689 theespressomachinesreviewer.com 0 No Rank 2011-12-19 02:25:54
5237690 max.alexandriakyberry.xanga.com 0 3449 2011-12-19 02:25:54
5237691 ilise.no 0 No Rank 2011-12-19 02:25:57
5237692 doctorjj.parentshelpingteens.com 0 15120107 2011-12-19 02:26:01
5237693 ileneperlman.com 0 17161303 2011-12-19 02:26:01
5237694 ijk.pl 0 No Rank 2011-12-19 02:26:05
5237695 static.completebatterysource.com 0 3326172 2011-12-19 02:26:08
5237696 sussexdownshomedogboarding.co.uk 0 No Rank 2011-12-19 02:26:09
5237697 igo8.com 0 3362608 2011-12-19 02:26:15
5237698 ksbitzer.parentshelpingteens.com 0 15120107 2011-12-19 02:26:16
5237699 ignitedmedia.org 0 15846306 2011-12-19 02:26:22
5237700 ifunding.com 0 17453334 2011-12-19 02:26:23
5237701 webcampornogratis.altpornnow.com 0 No Rank 2011-12-19 02:26:28
5237702 xn----qmclbbmgy2praififl2b.com 0 6971581 2011-12-19 02:26:31
5237703 explodingbusinessopportunity.com 0 No Rank 2011-12-19 02:26:36
5237704 ifilmalliance.com 0 4175030 2011-12-19 02:26:37
5237705 iexpertadvisor.com 0 534033 2011-12-19 02:26:39
5237706 programs.parentshelpingteens.com 0 15120107 2011-12-19 02:26:43
5237707 northernlightsshoppingcenter.com 0 No Rank 2011-12-19 02:26:45
5237708 twttindeb.parentshelpingteens.com 0 15120107 2011-12-19 02:26:48
5237709 identitymash-up.org 0 No Rank 2011-12-19 02:26:52
5237710 idtraveller.com 0 3483531 2011-12-19 02:26:52
5237711 samsungnf310-a01.salescheaper.com 0 No Rank 2011-12-19 02:26:54
5237712 cartes-de-voeux.111imprimerie.com 0 4290723 2011-12-19 02:26:58
5237713 realsocialdynamicsnation.com 0 No Rank 2011-12-19 02:26:59
5237714 ideastochangetheworld.org 0 No Rank 2011-12-19 02:26:59
5237715 palmcoast.parentshelpingteens.com 0 15120107 2011-12-19 02:27:00
5237716 leapfrogpadexplorerfridgephonics.com 0 4690149 2011-12-19 02:27:00
5237717 ideas-incorporated.net 0 No Rank 2011-12-19 02:27:01
5237718 idealweightlosscolorado.com 0 No Rank 2011-12-19 02:27:04
5237719 svyatoshinskiy.dveri-100.info 0 10967509 2011-12-19 02:27:10
5237720 idcard.org 0 No Rank 2011-12-19 02:27:10
5237721 intranet.comudeguadalajara.gob.mx 0 1870970 2011-12-19 02:27:14
5237722 rforsythe.parentshelpingteens.com 0 15120107 2011-12-19 02:27:16
5237723 bellsouthintellectualproperty.com 0 No Rank 2011-12-19 02:27:20
5237724 idanreland.org 0 No Rank 2011-12-19 02:27:21
5237725 iconicworld.com 0 No Rank 2011-12-19 02:27:23
5237726 iconcompany.com 0 No Rank 2011-12-19 02:27:24
5237727 notmyteen.parentshelpingteens.com 0 15120107 2011-12-19 02:27:30
5237728 icobahrd.com 0 No Rank 2011-12-19 02:27:30
5237729 iceprofl.com 0 14515504 2011-12-19 02:27:33
5237730 icevents.nl 0 No Rank 2011-12-19 02:27:33
5237731 barneberger-schalmeienorchester.de 0 No Rank 2011-12-19 02:27:37
5237732 patshannon.parentshelpingteens.com 0 15120107 2011-12-19 02:27:38
5237733 icejets.com 0 7686123 2011-12-19 02:27:38
5237734 icehouseinn.com 0 8102819 2011-12-19 02:27:38
5237735 fuel-filter-kherson.avtosklad.net 0 1790672 2011-12-19 02:27:40
5237736 ibyteaustin.com 0 No Rank 2011-12-19 02:27:46
5237737 ibeyonce.cz 0 21510978 2011-12-19 02:27:59
5237738 ibewlocal326.org 0 No Rank 2011-12-19 02:28:00
5237739 ibasso.com 0 800148 2011-12-19 02:28:02
5237740 cavmen.home.receive-sms.com 0 25804752 2011-12-19 02:28:06
5237741 rebeccasue.parentshelpingteens.com 0 15120107 2011-12-19 02:28:07
5237742 kathleenco.parentshelpingteens.com 0 15120107 2011-12-19 02:28:08
5237743 troythomas.parentshelpingteens.com 0 15120107 2011-12-19 02:28:09
5237744 ianestevens.com 0 No Rank 2011-12-19 02:28:14
5237745 iamnotjerry.org 0 No Rank 2011-12-19 02:28:19
5237746 cecilandliz.parentshelpingteens.com 0 15120107 2011-12-19 02:28:24
5237747 iaff3115.org 0 No Rank 2011-12-19 02:28:26
5237748 commandperformanceentertainment.com 0 10688267 2011-12-19 02:28:26
5237749 iabonirealestate.com 0 No Rank 2011-12-19 02:28:27
5237750 i90wildlifewatch.org 0 No Rank 2011-12-19 02:28:34
5237751 i-novatetech.com 0 3911236 2011-12-19 02:28:35
5237752 carllarsongl.parentshelpingteens.com 0 15120107 2011-12-19 02:28:36
5237753 springvalley.parentshelpingteens.com 0 15120107 2011-12-19 02:28:46
5237754 newcarscampaigns.connectcarindia.com 0 3687584 2011-12-19 02:28:50
5237755 hyperionnz.co.nz 0 No Rank 2011-12-19 02:28:51
5237756 hylldepan.se 0 No Rank 2011-12-19 02:28:53
5237757 hyjea.com 0 No Rank 2011-12-19 02:28:56
5237758 immobilienvermittlung-ostfriesland.de 0 No Rank 2011-12-19 02:28:56
5237759 hydraulicad.com 0 13714274 2011-12-19 02:28:59
5237760 1847-1875-scott-1-2-3-4-us-stamps.com 0 No Rank 2011-12-19 02:29:00
5237761 hyderabadlawyer4nris.com 0 No Rank 2011-12-19 02:29:01
5237762 hybridhippie.com 0 No Rank 2011-12-19 02:29:07
5237763 hyampom.com 0 14646047 2011-12-19 02:29:07
5237764 usedcarscampaigns.connectcarindia.com 0 3687584 2011-12-19 02:29:07
5237765 hxdulcimers.com 0 No Rank 2011-12-19 02:29:12
5237766 hwleather.com 0 No Rank 2011-12-19 02:29:23
5237767 strugglingteens.parentshelpingteens.com 0 15120107 2011-12-19 02:29:31
5237768 huobao88.com 0 No Rank 2011-12-19 02:29:31
5237769 hunterzwart.com 0 No Rank 2011-12-19 02:29:35
5237770 huntingtonarcheryclub.com 0 19919417 2011-12-19 02:29:35
5237771 javed-fiyaz-french.fiyaz.v11.the-vx.com 0 24149170 2011-12-19 02:29:36
5237772 semarangbisnis.info 0 9516262 2011-12-19 02:29:38
5237773 hungryhungryghost.com 0 No Rank 2011-12-19 02:29:41
5237774 hotlookshairdesign.com 0 No Rank 2011-12-19 02:29:44
5237775 hotfood.org 0 No Rank 2011-12-19 02:29:44
5237776 hotelsboston.net 0 No Rank 2011-12-19 02:29:54
5237777 hotellandmarkshimla.com 0 2144100 2011-12-19 02:29:58
5237778 museumoftheamericanrailroad.com.netdocsdev.com 0 No Rank 2011-12-19 02:30:01
5237779 hotellalvsjo.nu 0 No Rank 2011-12-19 02:30:03
5237780 hotell-stallet.se 0 No Rank 2011-12-19 02:30:11
5237781 hotelkadayaung.com 0 No Rank 2011-12-19 02:30:18
5237782 hotelintirupati.com 0 5882457 2011-12-19 02:30:20
5237783 hotelgio.ro 0 13126436 2011-12-19 02:30:23
5237784 hotelrestaurantjobs.com 0 16155683 2011-12-19 02:30:28
5237785 hotelanshdeep.com 0 No Rank 2011-12-19 02:30:34
5237786 hotel-viator.com 0 9641907 2011-12-19 02:30:36
5237787 hotel-verona.com 0 No Rank 2011-12-19 02:30:38
5237788 hotel-vancouver.com 0 No Rank 2011-12-19 02:30:42
5237789 hotel-trio.cz 0 10108616 2011-12-19 02:30:43
5237790 ns939.abcname.net 0 400507 2011-12-19 02:30:45
5237791 hotel-rank.de 0 No Rank 2011-12-19 02:30:46
5237792 hotel-frohsinn.ch 0 24467515 2011-12-19 02:30:51
5237793 hotel-dacia-luxembourg-paris-latin-quarter.com 0 No Rank 2011-12-19 02:30:52
5237794 hot-turkey.ru 0 No Rank 2011-12-19 02:30:56
5237795 hostgatorcoupons.net 0 247692 2011-12-19 02:30:59
5237796 horsense.net 0 No Rank 2011-12-19 02:31:07
5237797 horsemeninc.com 0 18481056 2011-12-19 02:31:08
5237798 horseandfarminscci.com 0 12153280 2011-12-19 02:31:12
5237799 horrylodge381.com 0 No Rank 2011-12-19 02:31:13
5237800 referralriot.com 0 987983 2011-12-19 02:31:18
5237801 oldict.com 0 224898 2011-12-19 02:31:19
5237802 horology.ru 0 1126049 2011-12-19 02:31:24
5237803 hornyvalley.com 0 1444644 2011-12-19 02:31:24
5237804 hornetslax.com 0 No Rank 2011-12-19 02:31:28
5237805 horizontherapy.net 0 No Rank 2011-12-19 02:31:29
5237806 hopnboprecords.com 0 6820984 2011-12-19 02:31:36
5237807 dordeduca.ro 0 1834627 2011-12-19 02:31:39
5237808 hopkinshockey.com 0 14321261 2011-12-19 02:31:39
5237809 lasmanas.com 0 8576954 2011-12-19 02:31:40
5237810 hopastory.com 0 No Rank 2011-12-19 02:31:44
5237811 kpsanghvi.com 0 6108541 2011-12-19 02:31:46
5237812 hooldekodu.ee 0 No Rank 2011-12-19 02:31:46
5237813 krutahata.com 0 10566134 2011-12-19 02:31:49
5237814 hookandladdercharters.com 0 No Rank 2011-12-19 02:31:50
5237815 hongkongasiancuisine.com 0 9973368 2011-12-19 02:31:53
5237816 honeywell-produktkatalog.de 0 1580799 2011-12-19 02:31:59
5237817 brillanten.com 0 3284700 2011-12-19 02:32:02
5237818 honeybumble.com 0 No Rank 2011-12-19 02:32:03
5237819 hondasterose.com 0 No Rank 2011-12-19 02:32:07
5237820 homs-marine.com 0 No Rank 2011-12-19 02:32:15
5237821 hometownoc.com 0 3704926 2011-12-19 02:32:17
5237822 oldimprints.com 0 1446730 2011-12-19 02:32:25
5237823 homeoflanguages.com 0 13181609 2011-12-19 02:32:28
5237824 homeidea.com 0 No Rank 2011-12-19 02:32:29
5237825 homedepotcoupon.org 0 1358904 2011-12-19 02:32:31
5237826 home-energy-kit.com 0 No Rank 2011-12-19 02:32:34
5237827 topsrestaurant.be 0 No Rank 2011-12-19 02:32:39
5237828 holowanie24h.pl 0 No Rank 2011-12-19 02:32:39
5237829 holofit.com 0 No Rank 2011-12-19 02:32:40
5237830 millerdiamonds.com 0 24066766 2011-12-19 02:32:49
5237831 holidays2india.net 0 14030916 2011-12-19 02:33:01
5237832 kingsley-okotie.weebly.com 0 No Rank 2011-12-19 02:33:05
5237833 speechtotextservice.com 0 1711217 2011-12-19 02:33:06
5237834 hollowaymotorcars.com 0 12878765 2011-12-19 02:33:10
5237835 ukcityescorts.biz 0 No Rank 2011-12-19 02:33:12
5237836 holidays-in-mozambique.com 0 No Rank 2011-12-19 02:33:12
5237837 holidayrvpark.com 0 No Rank 2011-12-19 02:33:14
5237838 holiday-screensavers.info 0 No Rank 2011-12-19 02:33:20
5237839 hokuto-sp.com 0 No Rank 2011-12-19 02:33:22
5237840 hofverkstan.se 0 No Rank 2011-12-19 02:33:24
5237841 hoangphu.com 0 No Rank 2011-12-19 02:33:29
5237842 hmpersians.com 0 No Rank 2011-12-19 02:33:37
5237843 akkumulyator-nissan.avtosklad.net 0 1790672 2011-12-19 02:33:45
5237844 hmongwisconsin.com 0 No Rank 2011-12-19 02:33:45
5237845 ddcnq.com 0 No Rank 2011-12-19 02:33:45
5237846 ssl.ac.th 0 No Rank 2011-12-19 02:33:46
5237847 fetusa.com 0 No Rank 2011-12-19 02:33:51
5237848 aypibt.com 0 24928864 2011-12-19 02:33:52
5237849 hluboke.cz 0 2255814 2011-12-19 02:33:53
5237850 chacn.info 0 No Rank 2011-12-19 02:33:54
5237851 landonp.com 0 3754039 2011-12-19 02:34:00
5237852 hku.dk 0 No Rank 2011-12-19 02:34:00
5237853 cpen.com.cn 0 No Rank 2011-12-19 02:34:03
5237854 isreads.com 0 16652000 2011-12-19 02:34:04
5237855 yazici.info 0 No Rank 2011-12-19 02:34:04
5237856 hitlovenow.com 0 No Rank 2011-12-19 02:34:05
5237857 hiswitnessscents.com 0 18208679 2011-12-19 02:34:06
5237858 mojodev.com 0 8987640 2011-12-19 02:34:07
5237859 forcoon.com 0 No Rank 2011-12-19 02:34:09
5237860 eyazici.com 0 20043454 2011-12-19 02:34:12
5237861 kolones.com 0 27044322 2011-12-19 02:34:13
5237862 wawaee.info 0 No Rank 2011-12-19 02:34:13
5237863 hostboss.net 0 No Rank 2011-12-19 02:34:14
5237864 hiroanime-media.com 0 714402 2011-12-19 02:34:15
5237865 nassaupt.com 0 22893075 2011-12-19 02:34:18
5237866 gladhill.org 0 17894129 2011-12-19 02:34:19
5237867 fuelfrog.com 0 7353012 2011-12-19 02:34:19
5237868 hipsocietynews.com 0 3752240 2011-12-19 02:34:20
5237869 hipnotic.fr 0 No Rank 2011-12-19 02:34:21
5237870 ganlanhe.com 0 No Rank 2011-12-19 02:34:23
5237871 maliayas.com 0 11735058 2011-12-19 02:34:24
5237872 hiltonheadislandhotels.net 0 No Rank 2011-12-19 02:34:25
5237873 pedprops.com 0 No Rank 2011-12-19 02:34:26
5237874 hiltonheadhomeservices.com 0 No Rank 2011-12-19 02:34:31
5237875 hillviewbiblechapel.net 0 No Rank 2011-12-19 02:34:31
5237876 vivamktg.com 0 No Rank 2011-12-19 02:34:35
5237877 iq.vn.ua 0 No Rank 2011-12-19 02:34:35
5237878 hillsborosymphony.org 0 No Rank 2011-12-19 02:34:36
5237879 pattydee.com 0 No Rank 2011-12-19 02:34:36
5237880 hillgrayseven.com 0 17430514 2011-12-19 02:34:37
5237881 katjules.com 0 No Rank 2011-12-19 02:34:40
5237882 tennisclub.kamin.webstarts.com 0 7066 2011-12-19 02:34:41
5237883 drgulcan.com 0 25112191 2011-12-19 02:34:41
5237884 hillandhamilton.com 0 10823592 2011-12-19 02:34:41
5237885 i7design.net 0 No Rank 2011-12-19 02:34:44
5237886 lacepoet.com 0 No Rank 2011-12-19 02:34:45
5237887 hikuni.com 0 7258623 2011-12-19 02:34:45
5237888 unfrayed.com 0 No Rank 2011-12-19 02:34:48
5237889 jackross.net 0 No Rank 2011-12-19 02:34:48
5237890 highschooltennischampionships.com 0 No Rank 2011-12-19 02:34:50
5237891 konlakarn.com 0 16713169 2011-12-19 02:34:53
5237892 sgt-china.com 0 11703888 2011-12-19 02:34:56
5237893 ascomplus.com 0 11494083 2011-12-19 02:34:57
5237894 bountybev.com 0 740836 2011-12-19 02:34:58
5237895 highflyerscircus.com 0 No Rank 2011-12-19 02:34:59
5237896 abluepool.com 0 2657961 2011-12-19 02:35:00
5237897 conncreek.com 0 3209501 2011-12-19 02:35:02
5237898 colozz.co.cc 0 17781558 2011-12-19 02:35:03
5237899 dwightyee.com 0 No Rank 2011-12-19 02:35:04
5237900 dhammatan.net 0 4631021 2011-12-19 02:35:04
5237901 adparency.com 0 No Rank 2011-12-19 02:35:06
5237902 highestpayingjobsfromhome.com 0 No Rank 2011-12-19 02:35:08
5237903 highoctanethrills.com 0 18703240 2011-12-19 02:35:10
5237904 javadahut.com 0 No Rank 2011-12-19 02:35:10
5237905 ziettlow.info 0 No Rank 2011-12-19 02:35:11
5237906 highestfi.com 0 No Rank 2011-12-19 02:35:11
5237907 lyrikings.com 0 No Rank 2011-12-19 02:35:12
5237908 highereducationadvisors.com 0 No Rank 2011-12-19 02:35:13
5237909 kansanji.info 0 5489404 2011-12-19 02:35:15
5237910 phpartist.com 0 4127987 2011-12-19 02:35:16
5237911 highdesertdancearts.com 0 No Rank 2011-12-19 02:35:16
5237912 ctcfresno.org 0 No Rank 2011-12-19 02:35:17
5237913 ganrenqi.info 0 3205618 2011-12-19 02:35:17
5237914 highcholesteroltips.org 0 No Rank 2011-12-19 02:35:18
5237915 hawkcrest.com 0 22238436 2011-12-19 02:35:20
5237916 higharte.com 0 4662779 2011-12-19 02:35:21
5237917 higginslakehomes.net 0 13014766 2011-12-19 02:35:22
5237918 offersint.com 0 No Rank 2011-12-19 02:35:23
5237919 store.smwe.com 0 1864044 2011-12-19 02:35:24
5237920 cejournal.net 0 7315606 2011-12-19 02:35:25
5237921 easyrichy.com 0 No Rank 2011-12-19 02:35:26
5237922 goszipmall.com 0 No Rank 2011-12-19 02:35:27
5237923 hungerandthirst.org 0 No Rank 2011-12-19 02:35:28
5237924 yangchuang.com 0 13916635 2011-12-19 02:35:29
5237925 shenyinba.info 0 4550052 2011-12-19 02:35:31
5237926 hunanwok-randolph.com 0 No Rank 2011-12-19 02:35:31
5237927 zeedclub.in.th 0 1461463 2011-12-19 02:35:32
5237928 one100one.com 0 No Rank 2011-12-19 02:35:34
5237929 eroicawine.com 0 No Rank 2011-12-19 02:35:34
5237930 hummingbirdsweatshirts.com 0 No Rank 2011-12-19 02:35:36
5237931 sarahdavol.com 0 No Rank 2011-12-19 02:35:36
5237932 yinshuidd.info 0 3537222 2011-12-19 02:35:37
5237933 hicksmetal.com 0 No Rank 2011-12-19 02:35:38
5237934 humkamp.com 0 No Rank 2011-12-19 02:35:39
5237935 hickoryridgefirearms.com 0 No Rank 2011-12-19 02:35:42
5237936 mywindsong.org 0 No Rank 2011-12-19 02:35:43
5237937 humidorguitars.com 0 8005773 2011-12-19 02:35:44
5237938 dianwenpai.com 0 No Rank 2011-12-19 02:35:45
5237939 humber.nf.ca 0 15743949 2011-12-19 02:35:48
5237940 silicondsp.com 0 5452997 2011-12-19 02:35:51
5237941 focusme.com.cn 0 6826723 2011-12-19 02:35:51
5237942 humanresourcespeople.com 0 1992476 2011-12-19 02:35:51
5237943 samongbuom.com 0 No Rank 2011-12-19 02:35:51
5237944 shouyinba.info 0 No Rank 2011-12-19 02:35:53
5237945 hibiskus.com.pl 0 No Rank 2011-12-19 02:35:54
5237946 print-adv.ru 0 No Rank 2011-12-19 02:35:54
5237947 codywright.com 0 No Rank 2011-12-19 02:35:56
5237948 rabbyhouse.com 0 No Rank 2011-12-19 02:35:56
5237949 hulsautoworks.com 0 No Rank 2011-12-19 02:35:57
5237950 about.smwe.com 0 1864044 2011-12-19 02:35:57
5237951 gtcbeijing.com 0 No Rank 2011-12-19 02:35:57
5237952 shangmama.info 0 9893245 2011-12-19 02:36:00
5237953 nulexplore.org 0 No Rank 2011-12-19 02:36:00
5237954 distantbay.com 0 No Rank 2011-12-19 02:36:03
5237955 tonicsalon.net 0 8965772 2011-12-19 02:36:05
5237956 kinetigauge.com 0 No Rank 2011-12-19 02:36:09
5237957 starautospa.com 0 No Rank 2011-12-19 02:36:10
5237958 samiandglen.com 0 No Rank 2011-12-19 02:36:12
5237959 findusawine.com 0 22236217 2011-12-19 02:36:13
5237960 htayservices.net 0 No Rank 2011-12-19 02:36:14
5237961 buywinenewyork05.tumblr.com 0 No Rank 2011-12-19 02:36:15
5237962 proregmedia.com 0 No Rank 2011-12-19 02:36:15
5237963 codykinetic.com 0 No Rank 2011-12-19 02:36:17
5237964 shenshenai.info 0 15061603 2011-12-19 02:36:18
5237965 htacharolais.com 0 No Rank 2011-12-19 02:36:18
5237966 davidrasch.com 0 No Rank 2011-12-19 02:36:19
5237967 dalchinnidc.com 0 11918781 2011-12-19 02:36:19
5237968 padnotesapp.com 0 No Rank 2011-12-19 02:36:21
5237969 sheiladicks.com 0 5817307 2011-12-19 02:36:23
5237970 bazarcanton.com 0 27864879 2011-12-19 02:36:27
5237971 htz.teen385.com 0 293766 2011-12-19 02:36:27
5237972 villamteden.com 0 9153872 2011-12-19 02:36:27
5237973 charterhunt.com 0 23608182 2011-12-19 02:36:28
5237974 hrgpllc.com 0 No Rank 2011-12-19 02:36:28
5237975 ziyou51wang.com 0 No Rank 2011-12-19 02:36:31
5237976 welovebzz.co.cc 0 6478886 2011-12-19 02:36:34
5237977 hq-footwear.com 0 No Rank 2011-12-19 02:36:39
5237978 howtogofromgirlfriendtowife.com 0 No Rank 2011-12-19 02:36:42
5237979 ns1007.abcname.net 0 400507 2011-12-19 02:36:43
5237980 howtocookasteak.com 0 1914491 2011-12-19 02:36:44
5237981 howtobuildasolarpanelhq.com 0 No Rank 2011-12-19 02:36:45
5237982 socasteerov.com 0 No Rank 2011-12-19 02:36:46
5237983 howlett.info 0 No Rank 2011-12-19 02:36:49
5237984 webhenmedia.com 0 10350348 2011-12-19 02:36:51
5237985 howdea.net 0 No Rank 2011-12-19 02:36:53
5237986 alysontucei.com 0 No Rank 2011-12-19 02:36:53
5237987 kimosteenlaw.com 0 17282389 2011-12-19 02:36:54
5237988 thesurveypro.net 0 No Rank 2011-12-19 02:36:56
5237989 giftcardspot.com 0 No Rank 2011-12-19 02:36:58
5237990 zhaochungang.com 0 14441080 2011-12-19 02:36:59
5237991 nassaustamps.com 0 No Rank 2011-12-19 02:37:00
5237992 saintexcargo.com 0 No Rank 2011-12-19 02:37:00
5237993 housepawz.com 0 No Rank 2011-12-19 02:37:02
5237994 ukcityescorts.co.uk 0 No Rank 2011-12-19 02:37:03
5237995 dream-cuties.com 0 3712996 2011-12-19 02:37:03
5237996 thaibiotech.info 0 4548425 2011-12-19 02:37:03
5237997 ideasourceky.com 0 14860620 2011-12-19 02:37:04
5237998 houseofprayer.org 0 No Rank 2011-12-19 02:37:05
5237999 shadajewelry.com 0 8868318 2011-12-19 02:37:05